• Join FlightAware (Why Join?)
  • Login
  • US Flag GB Flag 
07:39 EST


 

Airport Tracker/Info


-or-


 

Live Flight TrackerFlight Track Log ✈ UAL4550 ✈ 20-Apr-2013 ✈ KIAH - KMFE

Flight Track Log - Related Links

Times and Time Zones

All times are in EDT time to prevent confusion due to time zone crossing. See the UAL4550 flight status page for this flight to view local times or setup timezone preferences in your user account.

Time Position Orientation Groundspeed Altitude Reporting Facility
EDT Latitude Longitude Course Direction KTS MPH feet Rate Location/Type
22:26 29.9617 -95.3436 190° South 150 173 800  Level Houston Center
22:26 29.9428 -95.3217 135° Southeast 167 192 1,900 1,740 Climbing Houston Center
22:28 29.8861 -95.3214 180° South 232 267 3,900 1,860 Climbing Houston Center
22:29 29.7084 -95.3852 191° South  Level FlightAware Approximate
22:29 29.8147 -95.3475 198° South 251 289 6,200  Level Houston Center
22:30 29.6173 -95.4054 191° South  Level FlightAware Approximate
22:30 29.7442 -95.3631 191° South 261 300 8,500  Level Houston Center
22:31 29.5259 -95.4248 190° South  Level FlightAware Approximate
22:31 29.6711 -95.3789 191° South 268 308 10,100  Level Houston Center
22:32 29.5883 -95.3978 191° South 301 346 11,200 1,680 Climbing Houston Center
22:33 29.4850 -95.4208 191° South 317 365 13,500 2,100 Climbing Houston Center
22:34 29.4058 -95.4536 200° South 319 367 15,500 1,980 Climbing Houston Center
22:35 29.3417 -95.5117 218° Southwest 296 341 17,500 1,800 Climbing Houston Center
22:36 29.2792 -95.5672 218° Southwest 288 331 19,200 1,680 Climbing Houston Center
22:37 29.2178 -95.6225 218° Southwest 282 325 20,900 1,140 Climbing Houston Center
22:38 29.1519 -95.6817 218° Southwest 298 343 21,500 540 Climbing Houston Center
22:39 29.0786 -95.7469 218° Southwest 329 379 22,000 600 Climbing Houston Center
22:40 29.0003 -95.8161 218° Southwest 348 400 22,800 780 Climbing Houston Center
22:41 28.9192 -95.8875 218° Southwest 361 415 23,600 780 Climbing Houston Center
22:42 28.8381 -95.9589 218° Southwest 367 422 24,400 720 Climbing Houston Center
22:43 28.7553 -96.0319 218° Southwest 371 427 25,100 720 Climbing Houston Center
22:44 28.6722 -96.1058 218° Southwest 376 433 25,900 720 Climbing Houston Center
22:45 28.5894 -96.1789 218° Southwest 376 433 26,600 720 Climbing Houston Center
22:46 28.5069 -96.2517 218° Southwest 375 432 27,400 660 Climbing Houston Center
22:47 28.4236 -96.3242 217° Southwest 376 433 28,000 240 Climbing Houston Center
22:48 28.3389 -96.3981 218° Southwest 380 437 28,000  Level Houston Center
22:49 28.2500 -96.4764 218° Southwest 397 457 28,000  Level Houston Center
22:50 28.1594 -96.5547 217° Southwest 407 468 28,000  Level Houston Center
22:51 28.0683 -96.6336 217° Southwest 413 475 28,000  Level Houston Center
22:52 27.9753 -96.7119 217° Southwest 416 479 28,000  Level Houston Center
22:53 27.8836 -96.7936 218° Southwest 418 481 28,000  Level Houston Center
22:54 27.7900 -96.8744 217° Southwest 421 484 28,000  Level Houston Center
22:55 27.6956 -96.9564 218° Southwest 424 488 28,000 -60 Level Houston Center
22:56 27.6014 -97.0361 217° Southwest 425 489 27,900 -120 Descending Houston Center
22:57 27.5019 -97.1200 217° Southwest 426 490 27,800 -1,020 Descending Houston Center
22:58 27.4067 -97.2025 218° Southwest 430 495 25,900 -1,920 Descending Houston Center
22:59 27.3081 -97.2858 217° Southwest 438 504 23,900 -2,040 Descending Houston Center
23:00 27.2133 -97.3675 217° Southwest 433 498 21,900 -2,220 Descending Houston Center
23:01 27.1022 -97.4622 217° Southwest 415 478 19,400 -2,280 Descending Houston Center
23:01 27.0714 -97.4878 216° Southwest 412 474 18,800 -1,920 Descending Houston Center
23:02 27.0153 -97.5342 216° Southwest 403 464 17,600 -1,920 Descending Houston Center
23:02 26.9867 -97.5603 219° Southwest 402 463 16,900 -1,800 Descending Houston Center
23:03 26.9353 -97.6125 222° Southwest 379 436 15,800 -1,800 Descending Houston Center
23:03 26.9067 -97.6392 220° Southwest 366 421 15,100 -2,040 Descending Houston Center
23:04 26.8608 -97.6864 223° Southwest 360 414 13,800 -1,980 Descending Houston Center
23:04 26.8331 -97.7172 225° Southwest 359 413 13,100 -1,140 Descending Houston Center
23:05 26.7897 -97.7611 222° Southwest 338 389 12,700 -600 Descending Houston Center
23:05 26.7611 -97.7900 222° Southwest 351 404 12,500 -540 Descending Houston Center
23:06 26.7197 -97.8336 223° Southwest 341 392 12,200 -420 Descending Houston Center
23:06 26.6908 -97.8628 222° Southwest 347 399 12,100 -720 Descending Houston Center
23:07 26.6461 -97.9094 223° Southwest 355 409 11,500 -900 Descending Houston Center
23:07 26.6189 -97.9378 223° Southwest 350 403 11,200 -1,020 Descending Houston Center
23:08 26.5831 -97.9733 222° Southwest 321 369 10,500 -1,140 Descending Houston Center
23:08 26.5639 -97.9942 224° Southwest 283 326 10,100 -1,620 Descending Houston Center
23:09 26.5264 -98.0317 222° Southwest 264 304 8,900 -1,800 Descending Houston Center
23:09 26.5086 -98.0481 220° Southwest 264 304 8,300 -1,800 Descending Houston Center
23:10 26.4733 -98.0850 223° Southwest 260 299 7,100 -1,920 Descending Houston Center
23:10 26.4539 -98.1067 225° Southwest 259 298 6,400 -1,620 Descending Houston Center
23:11 26.4222 -98.1383 222° Southwest 255 293 5,500 -1,500 Descending Houston Center
23:11 26.4003 -98.1581 219° Southwest 254 292 4,900 -1,200 Descending Houston Center
23:12 26.3728 -98.1897 226° Southwest 247 284 4,300 -1,020 Descending Houston Center
23:12 26.3533 -98.2108 224° Southwest 245 282 3,900 -1,320 Descending Houston Center
23:13 26.3264 -98.2447 228° Southwest 243 280 3,000 -1,500 Descending Houston Center
23:13 26.3106 -98.2653 229° Southwest 240 276 2,400 -1,020 Descending Houston Center
23:14 26.2836 -98.2975 227° Southwest 235 270 2,000 -420 Descending Houston Center
23:15 26.2678 -98.2989 184° South 198 228 2,000 -540 Level Houston Center
23:15 26.2453 -98.2931 167° South 150 173 1,500 -840 Descending Houston Center